Погода в Калише

Польша     51°44′45″N   18°04′49″E
темп.,
°C
ветер,
м/с
пор.,
м/с
влажн.,
%
обл.,
%
осадки,
мм/ч
давл.,
гПа
погр.,
м
19 сентября, вс
вс1923:00+10ссз4782100 0.0 1015545
02:00+9ссз598294 0.0 1016370
05:00+7ссз36840 0.0 1016120
08:00+9ссз498111 0.0 1016389
11:00+13с565998 0.0 10161258
14:00+13ссз5659100 0.0 10161149
17:00+13с456175 0.0 10161058
20:00+12с3666100 0.0 1016438
20 сентября, пн
пн2023:00+11с3675100 0.0 1017428
02:00+10с3677100 0.0 1017435
05:00+10с3777100 0.1 1018374
08:00+9ссв3769100 0.1 1019473
11:00+11с5764100 0.0 10201014
14:00+13ссв564862 0.0 10201542
17:00+14с564852 0.0 10201619
20:00+9с356820 0.0 102277
21 сентября, вт
вт2123:00+11с3452100 0.0 1023129
02:00+11з1158100 0.0 102322
05:00+10ссз3666100 0.0 1023302
08:00+9с357299 0.0 1025230
11:00+13ссз44495 0.0 10251274
14:00+15сз454131 0.0 10251986
17:00+15сз4542100 0.0 10241811
20:00+12с3752100 0.0 1025296
22 сентября, ср
ср2223:00+11сз3556100 0.0 1026139
02:00+8ссз3588100 1.4 1026329
05:00+9сз3583100 0.6 1025329
08:00+9сз368187 1.1 1025367
11:00+13ссз455774 0.2 10251366
14:00+13сз4552100 0.3 10231764
17:00+12сз4666100 0.3 1022935
20:00+10сз4786100 0.8 1022269
23 сентября, чт
чт2323:00+10з3685100 0.1 1021224
02:00+8з369275 0.1 1020192
05:00+8з369784 0.1 1018157
08:00+9з3691100 0.1 1018259
11:00+12з5681100 0.0 1017530
14:00+15з685918 0.1 10141302
17:00+16з6956100 0.0 1012970
20:00+13юз41068100 0.0 1011233